BEIDOU-3 G1 (C59)

Last updated on Wed Aug 26 2026 00:04:16 GMT+0000 (Coordinated Universal Time)

1 43683U 18085A 26237.57697698 -.00000112 00000+0 00000+0 0 9996 2 43683 2.5641 95.4233 0006879 14.6127 231.5569 1.00273295 28753
UTC large
Height (km)
Speed (km/s)
/
Latitude / Longitude
Inclination (degrees)
Orbital Period (minutes)
Azimuth
Elevation
Range (km)
Doppler Factor

Next 0 passes for location: London (51.5072 / 0.1276)

No passes found over London.
BEIDOU-3 G1 (C59)